Time,TemperatureF,DewpointF,PressureIn,WindDirection,WindDirectionDegrees,WindSpeedMPH,WindSpeedGustMPH,Humidity,HourlyPrecipIn,Conditions,Clouds,dailyrainin,SoftwareType,DateUTC
2013-09-30 00:02:00,54.2,50.1,29.79,SSE,149,0.0,0.0,86,0.00,,SKC,0.00,VWS V14.01,2013-09-30 05:02:00,
2013-09-30 00:07:00,54.1,50.0,29.79,SSE,149,0.0,0.0,86,0.00,,SKC,0.00,VWS V14.01,2013-09-30 05:07:00,
2013-09-30 00:12:00,53.3,49.5,29.79,SSE,150,0.0,0.0,87,0.00,,SKC,0.00,VWS V14.01,2013-09-30 05:12:00,
2013-09-30 00:17:00,52.7,49.2,29.80,SSE,150,0.0,0.0,88,0.00,,SKC,0.00,VWS V14.01,2013-09-30 05:17:00,
2013-09-30 00:22:00,52.7,49.8,29.79,SSE,150,0.0,0.0,90,0.00,,SKC,0.00,VWS V14.01,2013-09-30 05:22:00,
2013-09-30 00:27:00,53.6,50.4,29.79,SSE,150,0.0,0.0,89,0.00,,SKC,0.00,VWS V14.01,2013-09-30 05:27:00,
2013-09-30 00:32:00,53.2,49.4,29.80,SSE,150,0.0,0.0,87,0.00,,SKC,0.00,VWS V14.01,2013-09-30 05:32:00,
2013-09-30 00:37:00,53.1,50.0,29.80,SSE,149,0.0,0.0,89,0.00,,SKC,0.00,VWS V14.01,2013-09-30 05:37:00,
2013-09-30 00:42:00,54.0,50.5,29.79,SSE,149,0.0,0.0,88,0.00,,SKC,0.00,VWS V14.01,2013-09-30 05:42:00,
2013-09-30 00:47:00,54.8,50.7,29.79,SSE,150,0.0,0.0,86,0.00,,SKC,0.00,VWS V14.01,2013-09-30 05:47:00,
2013-09-30 00:52:00,55.0,50.6,29.79,SSE,149,0.0,0.0,85,0.00,,SKC,0.00,VWS V14.01,2013-09-30 05:52:00,
2013-09-30 00:57:00,55.1,50.7,29.79,SSE,150,0.0,0.0,85,0.00,,SKC,0.00,VWS V14.01,2013-09-30 05:57:00,
2013-09-30 01:02:00,55.1,50.4,29.79,SSE,150,0.0,0.0,84,0.00,,SKC,0.00,VWS V14.01,2013-09-30 06:02:00,
2013-09-30 01:07:00,54.6,49.9,29.78,SSE,150,0.0,1.0,84,0.00,,SKC,0.00,VWS V14.01,2013-09-30 06:07:00,
2013-09-30 01:12:00,54.1,49.7,29.79,SSE,150,0.0,1.0,85,0.00,,SKC,0.00,VWS V14.01,2013-09-30 06:12:00,
2013-09-30 01:17:00,53.7,49.6,29.79,SSE,150,0.0,0.0,86,0.00,,SKC,0.00,VWS V14.01,2013-09-30 06:17:00,
2013-09-30 01:22:00,53.4,49.6,29.78,SSE,150,0.0,0.0,87,0.00,,SKC,0.00,VWS V14.01,2013-09-30 06:22:00,
2013-09-30 01:27:00,53.7,49.9,29.78,SSE,150,0.0,0.0,87,0.00,,SKC,0.00,VWS V14.01,2013-09-30 06:27:00,
2013-09-30 01:32:00,53.9,49.8,29.78,SSE,149,0.0,0.0,86,0.00,,SKC,0.00,VWS V14.01,2013-09-30 06:32:00,
2013-09-30 01:37:00,53.6,49.8,29.78,SSE,150,0.0,0.0,87,0.00,,SKC,0.00,VWS V14.01,2013-09-30 06:37:00,
2013-09-30 01:42:00,53.4,49.6,29.79,SSE,150,0.0,0.0,87,0.00,,SKC,0.00,VWS V14.01,2013-09-30 06:42:00,
2013-09-30 01:47:00,52.4,49.0,29.79,SSE,150,0.0,0.0,88,0.00,,SKC,0.00,VWS V14.01,2013-09-30 06:47:00,
2013-09-30 01:52:00,52.4,49.6,29.78,SSE,150,0.0,0.0,90,0.00,,SKC,0.00,VWS V14.01,2013-09-30 06:52:00,
2013-09-30 01:57:00,52.9,50.0,29.78,SSE,150,0.0,0.0,90,0.00,,SKC,0.00,VWS V14.01,2013-09-30 06:57:00,
2013-09-30 02:02:00,52.3,48.9,29.78,SSE,150,0.0,0.0,88,0.00,,SKC,0.00,VWS V14.01,2013-09-30 07:02:00,
2013-09-30 02:07:00,51.4,48.6,29.78,SSE,149,0.0,0.0,90,0.00,,SKC,0.00,VWS V14.01,2013-09-30 07:07:00,
2013-09-30 02:12:00,51.3,48.8,29.77,SSE,149,0.0,0.0,91,0.00,,SKC,0.00,VWS V14.01,2013-09-30 07:12:00,
2013-09-30 02:17:00,52.1,49.6,29.77,SSE,150,0.0,0.0,91,0.00,,SKC,0.00,VWS V14.01,2013-09-30 07:17:00,
2013-09-30 02:22:00,52.1,49.3,29.77,SSE,150,0.0,0.0,90,0.00,,SKC,0.00,VWS V14.01,2013-09-30 07:22:00,
2013-09-30 02:27:00,51.9,49.1,29.77,SSE,150,0.0,0.0,90,0.00,,SKC,0.00,VWS V14.01,2013-09-30 07:27:00,
2013-09-30 02:32:00,51.9,49.1,29.76,SSE,149,0.0,0.0,90,0.00,,SKC,0.00,VWS V14.01,2013-09-30 07:32:00,
2013-09-30 02:38:00,51.9,49.4,29.77,SSE,149,0.0,0.0,91,0.00,,SKC,0.00,VWS V14.01,2013-09-30 07:38:00,
2013-09-30 02:43:00,51.1,48.3,29.77,SSE,150,0.0,0.0,90,0.00,,SKC,0.00,VWS V14.01,2013-09-30 07:43:00,
2013-09-30 02:48:00,50.9,48.7,29.77,SSE,150,0.0,0.0,92,0.00,,SKC,0.00,VWS V14.01,2013-09-30 07:48:00,
2013-09-30 02:53:00,50.5,48.3,29.76,SSE,150,0.0,0.0,92,0.00,,SKC,0.00,VWS V14.01,2013-09-30 07:53:00,
2013-09-30 02:58:00,51.3,49.1,29.76,SSE,149,0.0,0.0,92,0.00,,SKC,0.00,VWS V14.01,2013-09-30 07:58:00,
2013-09-30 03:03:00,51.2,49.0,29.76,SSE,150,0.0,0.0,92,0.00,,SKC,0.00,VWS V14.01,2013-09-30 08:03:00,
2013-09-30 03:08:00,51.3,49.1,29.76,SSE,150,0.0,0.0,92,0.00,,SKC,0.00,VWS V14.01,2013-09-30 08:08:00,
2013-09-30 03:13:00,50.2,47.4,29.77,SSE,150,0.0,0.0,90,0.00,,SKC,0.00,VWS V14.01,2013-09-30 08:13:00,
2013-09-30 03:18:00,49.2,46.7,29.77,SSE,149,0.0,0.0,91,0.00,,SKC,0.00,VWS V14.01,2013-09-30 08:18:00,
2013-09-30 03:23:00,49.2,47.3,29.76,SSE,150,0.0,0.0,93,0.00,,SKC,0.00,VWS V14.01,2013-09-30 08:23:00,
2013-09-30 03:28:00,50.1,48.7,29.76,SSE,150,0.0,0.0,95,0.00,,SKC,0.00,VWS V14.01,2013-09-30 08:28:00,
2013-09-30 03:30:00,49.2,47.3,29.76,SSE,149,0.0,0.0,93,0.00,,SKC,0.00,VWS V14.01,2013-09-30 08:30:00,
2013-09-30 03:33:00,50.5,48.8,29.76,SSE,149,0.0,0.0,94,0.00,,SKC,0.00,VWS V14.01,2013-09-30 08:33:00,
2013-09-30 03:38:00,50.5,48.8,29.76,SSE,150,0.0,0.0,94,0.00,,SKC,0.00,VWS V14.01,2013-09-30 08:38:00,
2013-09-30 03:40:00,50.5,48.8,29.76,SSE,150,0.0,0.0,94,0.00,,SKC,0.00,VWS V14.01,2013-09-30 08:40:00,
2013-09-30 03:43:00,50.5,48.6,29.76,SSE,150,0.0,0.0,93,0.00,,SKC,0.00,VWS V14.01,2013-09-30 08:43:00,
2013-09-30 03:48:00,50.8,49.1,29.76,SSE,150,0.0,0.0,94,0.00,,SKC,0.00,VWS V14.01,2013-09-30 08:48:00,
2013-09-30 03:50:00,50.5,48.6,29.76,SSE,150,0.0,0.0,93,0.00,,SKC,0.00,VWS V14.01,2013-09-30 08:50:00,
2013-09-30 03:53:00,51.0,49.3,29.76,SSE,150,0.0,0.0,94,0.00,,SKC,0.00,VWS V14.01,2013-09-30 08:53:00,
2013-09-30 03:58:00,51.2,49.2,29.76,SSE,150,0.0,0.0,93,0.00,,SKC,0.00,VWS V14.01,2013-09-30 08:58:00,
2013-09-30 04:00:00,50.9,49.2,29.76,SSE,150,0.0,0.0,94,0.00,,SKC,0.00,VWS V14.01,2013-09-30 09:00:00,
2013-09-30 04:03:00,51.1,49.2,29.76,SSE,149,0.0,0.0,93,0.00,,SKC,0.00,VWS V14.01,2013-09-30 09:03:00,
2013-09-30 04:08:00,51.0,49.0,29.76,SSE,150,0.0,0.0,93,0.00,,SKC,0.00,VWS V14.01,2013-09-30 09:08:00,
2013-09-30 04:10:00,51.1,49.2,29.76,SSE,150,0.0,0.0,93,0.00,,SKC,0.00,VWS V14.01,2013-09-30 09:10:00,
2013-09-30 04:13:00,51.1,49.2,29.76,SSE,150,0.0,0.0,93,0.00,,SKC,0.00,VWS V14.01,2013-09-30 09:13:00,
2013-09-30 04:18:00,51.1,49.2,29.75,SSE,150,0.0,0.0,93,0.00,,SKC,0.00,VWS V14.01,2013-09-30 09:18:00,
2013-09-30 04:20:00,51.1,49.2,29.76,SSE,149,0.0,0.0,93,0.00,,SKC,0.00,VWS V14.01,2013-09-30 09:20:00,
2013-09-30 04:23:00,50.8,48.6,29.75,SSE,149,0.0,0.0,92,0.00,,SKC,0.00,VWS V14.01,2013-09-30 09:23:00,
2013-09-30 04:28:00,50.5,48.6,29.75,SSE,150,0.0,0.0,93,0.00,,SKC,0.00,VWS V14.01,2013-09-30 09:28:00,
2013-09-30 04:30:00,50.9,48.7,29.75,SSE,149,0.0,0.0,92,0.00,,SKC,0.00,VWS V14.01,2013-09-30 09:30:00,
2013-09-30 04:33:00,50.3,48.4,29.75,SSE,149,0.0,0.0,93,0.00,,SKC,0.00,VWS V14.01,2013-09-30 09:33:00,
2013-09-30 04:38:00,50.2,48.3,29.75,SSE,150,0.0,0.0,93,0.00,,SKC,0.00,VWS V14.01,2013-09-30 09:38:00,
2013-09-30 04:40:00,50.3,48.4,29.75,SSE,150,0.0,0.0,93,0.00,,SKC,0.00,VWS V14.01,2013-09-30 09:40:00,
2013-09-30 04:43:00,50.2,48.5,29.74,SSE,149,0.0,0.0,94,0.00,,SKC,0.00,VWS V14.01,2013-09-30 09:43:00,
2013-09-30 04:48:00,50.2,48.5,29.75,SSE,150,0.0,0.0,94,0.00,,SKC,0.00,VWS V14.01,2013-09-30 09:48:00,
2013-09-30 04:50:00,50.2,48.5,29.74,SSE,150,0.0,0.0,94,0.00,,SKC,0.00,VWS V14.01,2013-09-30 09:50:00,
2013-09-30 04:53:00,50.5,48.8,29.75,SSE,149,0.0,0.0,94,0.00,,SKC,0.00,VWS V14.01,2013-09-30 09:53:00,
2013-09-30 04:58:00,50.1,47.9,29.75,SSE,149,0.0,0.0,92,0.00,,SKC,0.00,VWS V14.01,2013-09-30 09:58:00,
2013-09-30 05:00:00,50.5,48.8,29.75,SSE,150,0.0,0.0,94,0.00,,SKC,0.00,VWS V14.01,2013-09-30 10:00:00,
2013-09-30 05:03:00,49.9,48.0,29.75,SSE,149,0.0,0.0,93,0.00,,SKC,0.00,VWS V14.01,2013-09-30 10:03:00,
2013-09-30 05:08:00,50.2,48.5,29.75,SSE,150,0.0,0.0,94,0.00,,SKC,0.00,VWS V14.01,2013-09-30 10:08:00,
2013-09-30 05:10:00,49.9,48.0,29.75,SSE,150,0.0,0.0,93,0.00,,SKC,0.00,VWS V14.01,2013-09-30 10:10:00,
2013-09-30 05:13:00,50.6,48.9,29.75,SSE,150,0.0,0.0,94,0.00,,SKC,0.00,VWS V14.01,2013-09-30 10:13:00,
2013-09-30 05:18:00,50.8,49.1,29.75,SSE,150,0.0,0.0,94,0.00,,SKC,0.00,VWS V14.01,2013-09-30 10:18:00,
2013-09-30 05:20:00,50.5,48.8,29.75,SSE,150,0.0,0.0,94,0.00,,SKC,0.00,VWS V14.01,2013-09-30 10:20:00,
2013-09-30 05:23:00,50.6,48.7,29.75,SSE,150,0.0,0.0,93,0.00,,SKC,0.00,VWS V14.01,2013-09-30 10:23:00,
2013-09-30 05:28:00,50.4,48.5,29.75,SSE,149,0.0,0.0,93,0.00,,SKC,0.00,VWS V14.01,2013-09-30 10:28:00,
2013-09-30 05:30:00,50.6,48.7,29.75,SSE,150,0.0,0.0,93,0.00,,SKC,0.00,VWS V14.01,2013-09-30 10:30:00,
2013-09-30 05:33:00,49.7,47.8,29.76,SSE,150,0.0,0.0,93,0.00,,SKC,0.00,VWS V14.01,2013-09-30 10:33:00,
2013-09-30 05:38:00,49.9,48.5,29.75,SSE,150,0.0,0.0,95,0.00,,SKC,0.00,VWS V14.01,2013-09-30 10:38:00,
2013-09-30 05:40:00,49.8,47.9,29.76,SSE,150,0.0,0.0,93,0.00,,SKC,0.00,VWS V14.01,2013-09-30 10:40:00,
2013-09-30 05:43:00,49.1,47.2,29.75,SSE,150,0.0,0.0,93,0.00,,SKC,0.00,VWS V14.01,2013-09-30 10:43:00,
2013-09-30 05:48:00,49.4,48.0,29.75,SSE,149,0.0,0.0,95,0.00,,SKC,0.00,VWS V14.01,2013-09-30 10:48:00,
2013-09-30 05:50:00,49.4,47.5,29.75,SSE,149,0.0,0.0,93,0.00,,SKC,0.00,VWS V14.01,2013-09-30 10:50:00,
2013-09-30 05:53:00,50.3,48.9,29.75,SSE,150,0.0,0.0,95,0.00,,SKC,0.00,VWS V14.01,2013-09-30 10:53:00,
2013-09-30 05:58:00,50.2,48.5,29.75,SSE,150,0.0,0.0,94,0.00,,SKC,0.00,VWS V14.01,2013-09-30 10:58:00,
2013-09-30 06:00:00,50.1,48.7,29.75,SSE,150,0.0,0.0,95,0.00,,SKC,0.00,VWS V14.01,2013-09-30 11:00:00,
2013-09-30 06:03:00,49.6,48.0,29.75,SSE,149,0.0,0.0,94,0.00,,SKC,0.00,VWS V14.01,2013-09-30 11:03:00,
2013-09-30 06:08:00,49.9,48.5,29.75,SSE,149,0.0,0.0,95,0.00,,SKC,0.00,VWS V14.01,2013-09-30 11:08:00,
2013-09-30 06:10:00,49.6,48.0,29.75,SSE,150,0.0,0.0,94,0.00,,SKC,0.00,VWS V14.01,2013-09-30 11:10:00,
2013-09-30 06:13:00,50.2,48.8,29.75,SSE,150,0.0,0.0,95,0.00,,SKC,0.00,VWS V14.01,2013-09-30 11:13:00,
2013-09-30 06:19:00,50.5,49.1,29.75,SSE,149,0.0,0.0,95,0.00,,SKC,0.00,VWS V14.01,2013-09-30 11:19:00,
2013-09-30 06:20:00,50.1,48.7,29.75,SSE,149,0.0,0.0,95,0.00,,SKC,0.00,VWS V14.01,2013-09-30 11:20:00,
2013-09-30 06:24:00,49.5,47.6,29.75,SSE,149,0.0,0.0,93,0.00,,SKC,0.00,VWS V14.01,2013-09-30 11:24:00,
2013-09-30 06:29:00,49.7,48.3,29.75,SSE,149,0.0,0.0,95,0.00,,SKC,0.00,VWS V14.01,2013-09-30 11:29:00,
2013-09-30 06:30:00,49.7,47.8,29.75,SSE,149,0.0,0.0,93,0.00,,SKC,0.00,VWS V14.01,2013-09-30 11:30:00,
2013-09-30 06:34:00,50.0,48.6,29.75,SSE,149,0.0,0.0,95,0.00,,SKC,0.00,VWS V14.01,2013-09-30 11:34:00,
2013-09-30 06:39:00,49.9,48.2,29.75,SSE,150,0.0,0.0,94,0.00,,SKC,0.00,VWS V14.01,2013-09-30 11:39:00,
2013-09-30 06:40:00,50.0,48.6,29.75,SSE,149,0.0,0.0,95,0.00,,SKC,0.00,VWS V14.01,2013-09-30 11:40:00,
2013-09-30 06:44:00,49.6,48.0,29.75,SSE,149,0.0,0.0,94,0.00,,SKC,0.00,VWS V14.01,2013-09-30 11:44:00,
2013-09-30 06:49:00,49.3,47.9,29.75,SSE,149,0.0,0.0,95,0.00,,SKC,0.00,VWS V14.01,2013-09-30 11:49:00,
2013-09-30 06:50:00,49.7,48.0,29.75,SSE,149,0.0,0.0,94,0.00,,SKC,0.00,VWS V14.01,2013-09-30 11:50:00,
2013-09-30 06:54:00,49.1,47.7,29.75,SSE,149,0.0,0.0,95,0.00,,SKC,0.00,VWS V14.01,2013-09-30 11:54:00,
2013-09-30 06:59:00,49.0,47.6,29.75,SSE,150,0.0,0.0,95,0.00,,SKC,0.00,VWS V14.01,2013-09-30 11:59:00,
2013-09-30 07:00:00,49.2,47.8,29.75,SSE,149,0.0,0.0,95,0.00,,SKC,0.00,VWS V14.01,2013-09-30 12:00:00,
2013-09-30 07:04:00,49.1,48.0,29.75,SSE,149,0.0,0.0,96,0.00,,SKC,0.00,VWS V14.01,2013-09-30 12:04:00,
2013-09-30 07:09:00,49.2,48.1,29.75,SSE,150,0.0,0.0,96,0.00,,SKC,0.00,VWS V14.01,2013-09-30 12:09:00,
2013-09-30 07:10:00,49.1,48.0,29.75,SSE,150,0.0,0.0,96,0.00,,SKC,0.00,VWS V14.01,2013-09-30 12:10:00,
2013-09-30 07:14:00,49.1,48.0,29.76,SSE,149,0.0,0.0,96,0.00,,SKC,0.00,VWS V14.01,2013-09-30 12:14:00,
2013-09-30 07:19:00,49.2,48.1,29.75,SSE,149,0.0,0.0,96,0.00,,SKC,0.00,VWS V14.01,2013-09-30 12:19:00,
2013-09-30 07:20:00,49.2,48.1,29.76,SSE,149,0.0,0.0,96,0.00,,SKC,0.00,VWS V14.01,2013-09-30 12:20:00,
2013-09-30 07:24:00,49.2,48.1,29.75,SSE,150,0.0,0.0,96,0.00,,SKC,0.00,VWS V14.01,2013-09-30 12:24:00,
2013-09-30 07:29:00,49.2,48.1,29.75,SSE,149,0.0,0.0,96,0.00,,SKC,0.00,VWS V14.01,2013-09-30 12:29:00,
2013-09-30 07:30:00,49.2,48.1,29.75,SSE,150,0.0,0.0,96,0.00,,SKC,0.00,VWS V14.01,2013-09-30 12:30:00,
2013-09-30 07:34:00,49.2,48.1,29.75,SSE,149,0.0,0.0,96,0.00,,SKC,0.00,VWS V14.01,2013-09-30 12:34:00,
2013-09-30 07:39:00,49.2,48.1,29.75,SSE,149,0.0,1.0,96,0.00,,SKC,0.00,VWS V14.01,2013-09-30 12:39:00,
2013-09-30 07:40:00,49.2,48.1,29.75,SSE,149,0.0,0.0,96,0.00,,SKC,0.00,VWS V14.01,2013-09-30 12:40:00,
2013-09-30 07:44:00,49.2,48.1,29.75,SSE,150,0.0,0.0,96,0.00,,SKC,0.00,VWS V14.01,2013-09-30 12:44:00,
2013-09-30 07:49:00,49.2,48.1,29.75,SSE,150,0.0,0.0,96,0.00,,SKC,0.00,VWS V14.01,2013-09-30 12:49:00,
2013-09-30 07:50:00,49.2,48.1,29.75,SSE,150,0.0,1.0,96,0.00,,SKC,0.00,VWS V14.01,2013-09-30 12:50:00,
2013-09-30 07:54:00,49.3,48.2,29.75,SSE,150,0.0,0.0,96,0.00,,SKC,0.00,VWS V14.01,2013-09-30 12:54:00,
2013-09-30 07:59:00,49.4,48.3,29.74,SSE,150,0.0,0.0,96,0.00,,SKC,0.00,VWS V14.01,2013-09-30 12:59:00,
2013-09-30 08:04:00,49.7,48.9,29.75,SSE,150,0.0,0.0,97,0.00,,SKC,0.00,VWS V14.01,2013-09-30 13:04:00,
2013-09-30 08:09:00,49.9,49.1,29.75,SSE,149,0.0,0.0,97,0.00,,SKC,0.00,VWS V14.01,2013-09-30 13:09:00,
2013-09-30 08:10:00,49.6,48.8,29.74,SSE,150,0.0,0.0,97,0.00,,SKC,0.00,VWS V14.01,2013-09-30 13:10:00,
2013-09-30 08:14:00,50.1,49.3,29.75,SSE,149,0.0,0.0,97,0.00,,SKC,0.00,VWS V14.01,2013-09-30 13:14:00,
2013-09-30 08:19:00,50.6,49.8,29.74,SSE,150,0.0,0.0,97,0.00,,SKC,0.00,VWS V14.01,2013-09-30 13:19:00,
2013-09-30 08:20:00,50.0,49.2,29.75,SSE,150,0.0,0.0,97,0.00,,SKC,0.00,VWS V14.01,2013-09-30 13:20:00,
2013-09-30 08:24:00,51.1,50.0,29.75,SSE,150,0.0,0.0,96,0.00,,SKC,0.00,VWS V14.01,2013-09-30 13:24:00,
2013-09-30 08:29:00,51.6,50.5,29.75,SSE,150,0.0,1.0,96,0.00,,SKC,0.00,VWS V14.01,2013-09-30 13:29:00,
2013-09-30 08:30:00,50.9,50.1,29.74,SSE,150,0.0,0.0,97,0.00,,SKC,0.00,VWS V14.01,2013-09-30 13:30:00,
2013-09-30 08:34:00,52.3,51.2,29.75,SSE,150,0.0,0.0,96,0.00,,SKC,0.00,VWS V14.01,2013-09-30 13:34:00,
2013-09-30 08:39:00,53.3,51.9,29.75,SSE,150,1.0,1.0,95,0.00,,SKC,0.00,VWS V14.01,2013-09-30 13:39:00,
2013-09-30 08:40:00,52.0,50.9,29.75,SSE,150,0.0,1.0,96,0.00,,SKC,0.00,VWS V14.01,2013-09-30 13:40:00,
2013-09-30 08:44:00,53.9,52.2,29.75,SSE,150,0.0,0.0,94,0.00,,SKC,0.00,VWS V14.01,2013-09-30 13:44:00,
2013-09-30 08:49:00,54.4,52.4,29.75,SSE,150,0.0,0.0,93,0.00,,SKC,0.00,VWS V14.01,2013-09-30 13:49:00,
2013-09-30 08:50:00,53.7,52.3,29.75,SSE,150,0.0,1.0,95,0.00,,SKC,0.00,VWS V14.01,2013-09-30 13:50:00,
2013-09-30 08:54:00,55.0,52.7,29.75,SSE,150,0.0,0.0,92,0.00,,SKC,0.00,VWS V14.01,2013-09-30 13:54:00,
2013-09-30 08:59:00,55.5,52.9,29.75,SSE,150,0.0,0.0,91,0.00,,SKC,0.00,VWS V14.01,2013-09-30 13:59:00,
2013-09-30 09:00:00,54.8,52.5,29.75,SSE,150,0.0,0.0,92,0.00,,SKC,0.00,VWS V14.01,2013-09-30 14:00:00,
2013-09-30 09:04:00,55.7,53.1,29.75,SSE,150,0.0,0.0,91,0.00,,SKC,0.00,VWS V14.01,2013-09-30 14:04:00,
2013-09-30 09:09:00,56.2,53.3,29.75,SSE,150,0.0,2.0,90,0.00,,SKC,0.00,VWS V14.01,2013-09-30 14:09:00,
2013-09-30 09:10:00,55.6,53.0,29.75,SSE,150,0.0,1.0,91,0.00,,SKC,0.00,VWS V14.01,2013-09-30 14:10:00,
2013-09-30 09:14:00,56.5,53.3,29.75,SSE,150,0.0,4.0,89,0.00,,SKC,0.00,VWS V14.01,2013-09-30 14:14:00,
2013-09-30 09:19:00,56.9,53.7,29.75,SSE,150,0.0,4.0,89,0.00,,SKC,0.00,VWS V14.01,2013-09-30 14:19:00,
2013-09-30 09:20:00,56.4,53.5,29.75,SSE,150,0.0,2.0,90,0.00,,SKC,0.00,VWS V14.01,2013-09-30 14:20:00,
2013-09-30 09:24:00,57.5,54.0,29.75,SSE,150,0.0,1.0,88,0.00,,SKC,0.00,VWS V14.01,2013-09-30 14:24:00,
2013-09-30 09:29:00,58.2,54.4,29.75,SSE,150,0.0,1.0,87,0.00,,SKC,0.00,VWS V14.01,2013-09-30 14:29:00,
2013-09-30 09:30:00,57.2,53.7,29.75,SSE,150,0.0,4.0,88,0.00,,SKC,0.00,VWS V14.01,2013-09-30 14:30:00,
2013-09-30 09:34:00,59.0,55.1,29.75,SSE,150,0.0,0.0,87,0.00,,SKC,0.00,VWS V14.01,2013-09-30 14:34:00,
2013-09-30 09:39:00,59.2,54.7,29.75,SSE,151,0.0,1.0,85,0.00,,SKC,0.00,VWS V14.01,2013-09-30 14:39:00,
2013-09-30 09:40:00,58.7,55.2,29.75,SSE,150,0.0,1.0,88,0.00,,SKC,0.00,VWS V14.01,2013-09-30 14:40:00,
2013-09-30 09:44:00,59.6,54.8,29.74,SSE,153,0.0,0.0,84,0.00,,SKC,0.00,VWS V14.01,2013-09-30 14:44:00,
2013-09-30 09:49:00,60.3,55.8,29.74,SSE,153,0.0,1.0,85,0.00,,SKC,0.00,VWS V14.01,2013-09-30 14:49:00,
2013-09-30 09:50:00,59.5,55.0,29.75,SSE,153,0.0,3.0,85,0.00,,SKC,0.00,VWS V14.01,2013-09-30 14:50:00,
2013-09-30 09:54:00,61.0,55.5,29.74,SSE,153,4.0,4.0,82,0.00,,SKC,0.00,VWS V14.01,2013-09-30 14:54:00,
2013-09-30 09:59:00,61.6,55.7,29.74,SSE,153,0.0,6.0,81,0.00,,SKC,0.00,VWS V14.01,2013-09-30 14:59:00,
2013-09-30 10:00:00,60.7,55.5,29.74,SSE,153,0.0,2.0,83,0.00,,SKC,0.00,VWS V14.01,2013-09-30 15:00:00,
2013-09-30 10:05:00,62.2,56.0,29.74,SSE,153,0.0,6.0,80,0.00,,SKC,0.00,VWS V14.01,2013-09-30 15:05:00,
2013-09-30 10:10:00,62.9,55.6,29.74,SSE,154,0.0,6.0,77,0.00,,SKC,0.00,VWS V14.01,2013-09-30 15:10:00,
2013-09-30 10:15:00,63.6,55.9,29.74,SSE,159,0.0,5.0,76,0.00,,SKC,0.00,VWS V14.01,2013-09-30 15:15:00,
2013-09-30 10:19:00,64.0,55.9,29.74,South,169,0.0,5.0,75,0.00,,SKC,0.00,VWS V14.01,2013-09-30 15:19:00,
2013-09-30 10:20:00,63.3,56.3,29.74,SSE,155,0.0,6.0,78,0.00,,SKC,0.00,VWS V14.01,2013-09-30 15:20:00,
2013-09-30 10:25:00,64.8,56.0,29.74,SSE,163,2.0,6.0,73,0.00,,SKC,0.00,VWS V14.01,2013-09-30 15:25:00,
2013-09-30 10:29:00,65.2,56.0,29.75,SSE,164,0.0,6.0,72,0.00,,SKC,0.00,VWS V14.01,2013-09-30 15:29:00,
2013-09-30 10:30:00,64.6,56.5,29.74,SSE,167,4.0,7.0,75,0.00,,SKC,0.00,VWS V14.01,2013-09-30 15:30:00,
2013-09-30 10:34:00,65.8,56.5,29.75,South,170,0.0,5.0,72,0.00,,SKC,0.00,VWS V14.01,2013-09-30 15:34:00,
2013-09-30 10:39:00,66.2,56.5,29.75,South,173,0.0,5.0,71,0.00,,SKC,0.00,VWS V14.01,2013-09-30 15:39:00,
2013-09-30 10:40:00,65.4,56.2,29.74,South,169,0.0,6.0,72,0.00,,SKC,0.00,VWS V14.01,2013-09-30 15:40:00,
2013-09-30 10:45:00,66.7,56.2,29.75,South,172,0.0,0.0,69,0.00,,SKC,0.00,VWS V14.01,2013-09-30 15:45:00,
2013-09-30 10:50:00,67.1,55.8,29.75,SSE,155,0.0,7.0,67,0.00,,SKC,0.00,VWS V14.01,2013-09-30 15:50:00,
2013-09-30 10:55:00,67.4,55.7,29.74,SSE,164,3.0,8.0,66,0.00,,SKC,0.00,VWS V14.01,2013-09-30 15:55:00,
2013-09-30 11:00:00,68.0,57.1,29.74,SE,146,0.0,8.0,68,0.00,,SKC,0.00,VWS V14.01,2013-09-30 16:00:00,
2013-09-30 11:05:00,68.8,56.6,29.74,SSE,157,0.0,5.0,65,0.00,,SKC,0.00,VWS V14.01,2013-09-30 16:05:00,
2013-09-30 11:10:00,69.3,57.0,29.74,SSE,167,0.0,5.0,65,0.00,,SKC,0.00,VWS V14.01,2013-09-30 16:10:00,
2013-09-30 11:15:00,69.7,57.0,29.74,South,171,3.0,4.0,64,0.00,,SKC,0.00,VWS V14.01,2013-09-30 16:15:00,
2013-09-30 11:20:00,70.0,56.8,29.74,South,189,0.0,5.0,63,0.00,,SKC,0.00,VWS V14.01,2013-09-30 16:20:00,
2013-09-30 11:25:00,70.1,56.0,29.74,South,177,1.0,6.0,61,0.00,,SKC,0.00,VWS V14.01,2013-09-30 16:25:00,
2013-09-30 11:30:00,70.0,56.8,29.74,SSE,167,3.0,6.0,63,0.00,,SKC,0.00,VWS V14.01,2013-09-30 16:30:00,
2013-09-30 11:35:00,70.9,56.8,29.73,South,184,0.0,5.0,61,0.00,,SKC,0.00,VWS V14.01,2013-09-30 16:35:00,
2013-09-30 11:40:00,71.1,56.1,29.74,SSW,197,0.0,5.0,59,0.00,,SKC,0.00,VWS V14.01,2013-09-30 16:40:00,
2013-09-30 11:45:00,72.0,56.9,29.74,SSW,194,0.0,4.0,59,0.00,,SKC,0.00,VWS V14.01,2013-09-30 16:45:00,
2013-09-30 11:50:00,71.9,56.8,29.73,SSW,194,0.0,4.0,59,0.00,,SKC,0.00,VWS V14.01,2013-09-30 16:50:00,
2013-09-30 11:55:00,72.1,56.0,29.73,South,172,1.0,6.0,57,0.00,,SKC,0.00,VWS V14.01,2013-09-30 16:55:00,
2013-09-30 12:00:00,72.0,56.0,29.73,SSE,162,0.0,7.0,57,0.00,,SKC,0.00,VWS V14.01,2013-09-30 17:00:00,
2013-09-30 12:10:00,72.4,55.3,29.73,South,177,0.0,2.0,55,0.00,,SKC,0.00,VWS V14.01,2013-09-30 17:10:00,
2013-09-30 12:20:00,73.0,55.4,29.73,SE,145,4.0,8.0,54,0.00,,SKC,0.00,VWS V14.01,2013-09-30 17:20:00,
2013-09-30 12:30:00,73.7,55.5,29.72,South,173,0.0,4.0,53,0.00,,SKC,0.00,VWS V14.01,2013-09-30 17:30:00,
2013-09-30 12:40:00,74.3,56.1,29.72,South,186,0.0,9.0,53,0.00,,SKC,0.00,VWS V14.01,2013-09-30 17:40:00,
2013-09-30 12:50:00,74.6,55.8,29.71,SSW,207,0.0,5.0,52,0.00,,SKC,0.00,VWS V14.01,2013-09-30 17:50:00,
2013-09-30 13:00:00,74.3,54.5,29.71,South,175,0.0,10.0,50,0.00,,SKC,0.00,VWS V14.01,2013-09-30 18:00:00,
2013-09-30 13:10:00,75.2,55.8,29.71,South,188,0.0,9.0,51,0.00,,SKC,0.00,VWS V14.01,2013-09-30 18:10:00,
2013-09-30 13:13:00,76.3,55.8,29.70,South,182,0.0,1.0,49,0.00,,SKC,0.00,VWS V14.01,2013-09-30 18:13:00,
2013-09-30 13:18:00,76.3,56.9,29.70,SE,136,0.0,12.0,51,0.00,,SKC,0.00,VWS V14.01,2013-09-30 18:18:00,
2013-09-30 13:20:00,76.1,56.7,29.70,SSW,192,0.0,7.0,51,0.00,,SKC,0.00,VWS V14.01,2013-09-30 18:20:00,
2013-09-30 13:23:00,76.3,55.8,29.70,SSE,152,0.0,6.0,49,0.00,,SKC,0.00,VWS V14.01,2013-09-30 18:23:00,
2013-09-30 13:28:00,76.6,54.3,29.70,South,176,0.0,6.0,46,0.00,,SKC,0.00,VWS V14.01,2013-09-30 18:28:00,
2013-09-30 13:30:00,76.3,55.2,29.70,South,175,0.0,12.0,48,0.00,,SKC,0.00,VWS V14.01,2013-09-30 18:30:00,
2013-09-30 13:33:00,76.5,55.9,29.70,SSW,192,0.0,0.0,49,0.00,,SKC,0.00,VWS V14.01,2013-09-30 18:33:00,
2013-09-30 13:38:00,76.8,55.1,29.69,SSW,196,0.0,5.0,47,0.00,,SKC,0.00,VWS V14.01,2013-09-30 18:38:00,
2013-09-30 13:40:00,76.5,54.2,29.70,South,189,0.0,6.0,46,0.00,,SKC,0.00,VWS V14.01,2013-09-30 18:40:00,
2013-09-30 13:43:00,77.4,55.0,29.69,SE,144,6.0,6.0,46,0.00,,SKC,0.00,VWS V14.01,2013-09-30 18:43:00,
2013-09-30 13:49:00,77.3,54.9,29.69,South,169,1.0,7.0,46,0.00,,SKC,0.00,VWS V14.01,2013-09-30 18:49:00,
2013-09-30 13:50:00,77.3,54.9,29.69,SE,139,5.0,7.0,46,0.00,,SKC,0.00,VWS V14.01,2013-09-30 18:50:00,
2013-09-30 13:54:00,76.7,54.4,29.69,SSW,192,0.0,9.0,46,0.00,,SKC,0.00,VWS V14.01,2013-09-30 18:54:00,
2013-09-30 13:59:00,76.9,55.2,29.68,SE,138,0.0,10.0,47,0.00,,SKC,0.00,VWS V14.01,2013-09-30 18:59:00,
2013-09-30 14:00:00,76.8,53.9,29.69,SSE,152,0.0,10.0,45,0.00,,SKC,0.00,VWS V14.01,2013-09-30 19:00:00,
2013-09-30 14:04:00,77.1,53.5,29.68,SSE,159,0.0,9.0,44,0.00,,SKC,0.00,VWS V14.01,2013-09-30 19:04:00,
2013-09-30 14:09:00,77.3,53.7,29.68,SSW,200,0.0,9.0,44,0.00,,SKC,0.00,VWS V14.01,2013-09-30 19:09:00,
2013-09-30 14:10:00,77.1,53.5,29.69,SSE,156,9.0,12.0,44,0.00,,SKC,0.00,VWS V14.01,2013-09-30 19:10:00,
2013-09-30 14:14:00,77.7,53.5,29.68,South,169,0.0,2.0,43,0.00,,SKC,0.00,VWS V14.01,2013-09-30 19:14:00,
2013-09-30 14:19:00,77.1,54.2,29.67,SSE,163,0.0,7.0,45,0.00,,SKC,0.00,VWS V14.01,2013-09-30 19:19:00,
2013-09-30 14:20:00,77.8,53.5,29.68,South,171,2.0,9.0,43,0.00,,SKC,0.00,VWS V14.01,2013-09-30 19:20:00,
2013-09-30 14:24:00,77.4,53.8,29.67,SSE,151,0.0,9.0,44,0.00,,SKC,0.00,VWS V14.01,2013-09-30 19:24:00,
2013-09-30 14:29:00,78.0,54.3,29.67,South,180,0.0,9.0,44,0.00,,SKC,0.00,VWS V14.01,2013-09-30 19:29:00,
2013-09-30 14:30:00,77.2,54.2,29.67,SE,138,3.0,9.0,45,0.00,,SKC,0.00,VWS V14.01,2013-09-30 19:30:00,
2013-09-30 14:34:00,78.2,53.9,29.67,SW,215,0.0,9.0,43,0.00,,SKC,0.00,VWS V14.01,2013-09-30 19:34:00,
2013-09-30 14:39:00,78.0,53.7,29.67,SSE,147,0.0,9.0,43,0.00,,SKC,0.00,VWS V14.01,2013-09-30 19:39:00,
2013-09-30 14:40:00,78.0,54.3,29.67,South,171,2.0,9.0,44,0.00,,SKC,0.00,VWS V14.01,2013-09-30 19:40:00,
2013-09-30 14:44:00,78.1,53.8,29.67,South,171,0.0,4.0,43,0.00,,SKC,0.00,VWS V14.01,2013-09-30 19:44:00,
2013-09-30 14:49:00,78.3,52.7,29.67,SSE,163,0.0,9.0,41,0.00,,SKC,0.00,VWS V14.01,2013-09-30 19:49:00,
2013-09-30 14:50:00,78.1,53.8,29.67,South,182,0.0,9.0,43,0.00,,SKC,0.00,VWS V14.01,2013-09-30 19:50:00,
2013-09-30 14:54:00,78.2,53.2,29.67,South,181,0.0,1.0,42,0.00,,SKC,0.00,VWS V14.01,2013-09-30 19:54:00,
2013-09-30 14:59:00,78.4,54.1,29.67,SSE,157,0.0,7.0,43,0.00,,SKC,0.00,VWS V14.01,2013-09-30 19:59:00,
2013-09-30 15:00:00,78.1,53.8,29.67,SSW,210,1.0,9.0,43,0.00,,SKC,0.00,VWS V14.01,2013-09-30 20:00:00,
2013-09-30 15:04:00,78.3,54.0,29.66,SSE,162,0.0,3.0,43,0.00,,SKC,0.00,VWS V14.01,2013-09-30 20:04:00,
2013-09-30 15:09:00,78.9,54.5,29.66,South,190,0.0,10.0,43,0.00,,SKC,0.00,VWS V14.01,2013-09-30 20:09:00,
2013-09-30 15:10:00,78.3,53.3,29.67,SSE,163,0.0,7.0,42,0.00,,SKC,0.00,VWS V14.01,2013-09-30 20:10:00,
2013-09-30 15:14:00,79.1,54.7,29.66,SSW,196,1.0,10.0,43,0.00,,SKC,0.00,VWS V14.01,2013-09-30 20:14:00,
2013-09-30 15:19:00,78.9,53.2,29.66,SSE,155,0.0,10.0,41,0.00,,SKC,0.00,VWS V14.01,2013-09-30 20:19:00,
2013-09-30 15:20:00,79.2,53.5,29.66,SW,215,10.0,10.0,41,0.00,,SKC,0.00,VWS V14.01,2013-09-30 20:20:00,
2013-09-30 15:24:00,78.7,53.7,29.66,SSE,163,0.0,1.0,42,0.00,,SKC,0.00,VWS V14.01,2013-09-30 20:24:00,
2013-09-30 15:29:00,79.2,54.8,29.66,SSW,192,0.0,4.0,43,0.00,,SKC,0.00,VWS V14.01,2013-09-30 20:29:00,
2013-09-30 15:30:00,78.9,53.2,29.67,SSE,164,0.0,10.0,41,0.00,,SKC,0.00,VWS V14.01,2013-09-30 20:30:00,
2013-09-30 15:34:00,79.0,54.0,29.66,SE,145,0.0,7.0,42,0.00,,SKC,0.00,VWS V14.01,2013-09-30 20:34:00,
2013-09-30 15:39:00,78.7,54.3,29.66,SE,140,11.0,11.0,43,0.00,,SKC,0.00,VWS V14.01,2013-09-30 20:39:00,
2013-09-30 15:40:00,79.1,54.1,29.66,SSE,150,3.0,5.0,42,0.00,,SKC,0.00,VWS V14.01,2013-09-30 20:40:00,
2013-09-30 15:44:00,78.7,53.0,29.65,South,188,0.0,4.0,41,0.00,,SKC,0.00,VWS V14.01,2013-09-30 20:44:00,
2013-09-30 15:49:00,78.8,52.5,29.65,South,181,0.0,7.0,40,0.00,,SKC,0.00,VWS V14.01,2013-09-30 20:49:00,
2013-09-30 15:54:00,79.7,54.6,29.65,South,190,0.0,1.0,42,0.00,,SKC,0.00,VWS V14.01,2013-09-30 20:54:00,
2013-09-30 15:59:00,79.6,55.8,29.65,SSW,196,0.0,6.0,44,0.00,,SKC,0.00,VWS V14.01,2013-09-30 20:59:00,
2013-09-30 16:00:00,79.4,54.3,29.65,South,189,0.0,7.0,42,0.00,,SKC,0.00,VWS V14.01,2013-09-30 21:00:00,
2013-09-30 16:04:00,79.2,54.8,29.65,South,170,6.0,8.0,43,0.00,,SKC,0.00,VWS V14.01,2013-09-30 21:04:00,
2013-09-30 16:09:00,78.7,55.0,29.65,South,178,0.0,8.0,44,0.00,,SKC,0.00,VWS V14.01,2013-09-30 21:09:00,
2013-09-30 16:10:00,79.3,54.9,29.65,SSW,192,5.0,6.0,43,0.00,,SKC,0.00,VWS V14.01,2013-09-30 21:10:00,
2013-09-30 16:14:00,79.2,52.8,29.65,South,190,0.0,5.0,40,0.00,,SKC,0.00,VWS V14.01,2013-09-30 21:14:00,
2013-09-30 16:19:00,79.5,54.4,29.65,SSE,161,0.0,5.0,42,0.00,,SKC,0.00,VWS V14.01,2013-09-30 21:19:00,
2013-09-30 16:20:00,78.9,53.9,29.65,South,188,0.0,8.0,42,0.00,,SKC,0.00,VWS V14.01,2013-09-30 21:20:00,
2013-09-30 16:24:00,78.7,54.3,29.65,South,169,0.0,9.0,43,0.00,,SKC,0.00,VWS V14.01,2013-09-30 21:24:00,
2013-09-30 16:29:00,78.6,54.3,29.66,SSE,153,0.0,9.0,43,0.00,,SKC,0.00,VWS V14.01,2013-09-30 21:29:00,
2013-09-30 16:30:00,78.7,54.3,29.66,South,169,0.0,9.0,43,0.00,,SKC,0.00,VWS V14.01,2013-09-30 21:30:00,
2013-09-30 16:34:00,78.8,55.1,29.66,SSE,158,0.0,0.0,44,0.00,,SKC,0.00,VWS V14.01,2013-09-30 21:34:00,
2013-09-30 16:39:00,79.0,54.6,29.66,SSE,168,0.0,2.0,43,0.00,,SKC,0.00,VWS V14.01,2013-09-30 21:39:00,
2013-09-30 16:40:00,78.7,54.3,29.66,SSE,155,0.0,9.0,43,0.00,,SKC,0.00,VWS V14.01,2013-09-30 21:40:00,
2013-09-30 16:44:00,78.7,54.3,29.66,SSE,167,0.0,1.0,43,0.00,,SKC,0.00,VWS V14.01,2013-09-30 21:44:00,
2013-09-30 16:49:00,78.7,53.7,29.66,SE,138,1.0,7.0,42,0.00,,SKC,0.00,VWS V14.01,2013-09-30 21:49:00,
2013-09-30 16:50:00,78.8,54.4,29.66,SSE,166,0.0,2.0,43,0.00,,SKC,0.00,VWS V14.01,2013-09-30 21:50:00,
2013-09-30 16:54:00,78.4,54.1,29.66,SSE,150,0.0,0.0,43,0.00,,SKC,0.00,VWS V14.01,2013-09-30 21:54:00,
2013-09-30 16:59:00,78.6,54.3,29.66,SSE,168,0.0,6.0,43,0.00,,SKC,0.00,VWS V14.01,2013-09-30 21:59:00,
2013-09-30 17:00:00,78.5,53.5,29.66,SSE,147,0.0,7.0,42,0.00,,SKC,0.00,VWS V14.01,2013-09-30 22:00:00,
2013-09-30 17:04:00,78.6,53.0,29.66,South,180,0.0,1.0,41,0.00,,SKC,0.00,VWS V14.01,2013-09-30 22:04:00,
2013-09-30 17:09:00,78.7,53.7,29.66,SE,140,0.0,6.0,42,0.00,,SKC,0.00,VWS V14.01,2013-09-30 22:09:00,
2013-09-30 17:10:00,78.7,53.7,29.66,South,185,0.0,6.0,42,0.00,,SKC,0.00,VWS V14.01,2013-09-30 22:10:00,
2013-09-30 17:14:00,78.1,52.5,29.65,SSE,163,0.0,10.0,41,0.00,,SKC,0.00,VWS V14.01,2013-09-30 22:14:00,
2013-09-30 17:19:00,77.7,51.5,29.65,SSE,151,1.0,10.0,40,0.00,,SKC,0.00,VWS V14.01,2013-09-30 22:19:00,
2013-09-30 17:20:00,78.3,52.7,29.65,SE,144,0.0,6.0,41,0.00,,SKC,0.00,VWS V14.01,2013-09-30 22:20:00,
2013-09-30 17:24:00,77.5,51.3,29.65,SSE,147,4.0,8.0,40,0.00,,SKC,0.00,VWS V14.01,2013-09-30 22:24:00,
2013-09-30 17:29:00,77.1,50.9,29.65,SSE,148,0.0,9.0,40,0.00,,SKC,0.00,VWS V14.01,2013-09-30 22:29:00,
2013-09-30 17:30:00,77.6,52.1,29.65,SSE,150,0.0,10.0,41,0.00,,SKC,0.00,VWS V14.01,2013-09-30 22:30:00,
2013-09-30 17:34:00,76.8,51.3,29.65,SSE,163,0.0,6.0,41,0.00,,SKC,0.00,VWS V14.01,2013-09-30 22:34:00,
2013-09-30 17:39:00,76.7,51.2,29.65,SSE,163,0.0,7.0,41,0.00,,SKC,0.00,VWS V14.01,2013-09-30 22:39:00,
2013-09-30 17:40:00,76.9,50.8,29.65,SE,144,0.0,9.0,40,0.00,,SKC,0.00,VWS V14.01,2013-09-30 22:40:00,
2013-09-30 17:44:00,76.7,51.2,29.65,SSE,168,0.0,4.0,41,0.00,,SKC,0.00,VWS V14.01,2013-09-30 22:44:00,
2013-09-30 17:49:00,76.4,50.3,29.66,SSE,161,0.0,4.0,40,0.00,,SKC,0.00,VWS V14.01,2013-09-30 22:49:00,
2013-09-30 17:50:00,76.8,51.3,29.66,SSE,166,4.0,7.0,41,0.00,,SKC,0.00,VWS V14.01,2013-09-30 22:50:00,
2013-09-30 17:54:00,76.1,50.7,29.66,SSE,163,0.0,0.0,41,0.00,,SKC,0.00,VWS V14.01,2013-09-30 22:54:00,
2013-09-30 18:00:00,76.2,50.1,29.66,SSE,163,0.0,4.0,40,0.00,,SKC,0.00,VWS V14.01,2013-09-30 23:00:00,
2013-09-30 18:02:00,75.5,51.5,29.66,SSE,161,0.0,0.0,43,0.00,,SKC,0.00,VWS V14.01,2013-09-30 23:02:00,
2013-09-30 18:07:00,75.1,51.7,29.65,SSE,156,0.0,4.0,44,0.00,,SKC,0.00,VWS V14.01,2013-09-30 23:07:00,
2013-09-30 18:10:00,75.5,51.5,29.66,SSE,161,0.0,0.0,43,0.00,,SKC,0.00,VWS V14.01,2013-09-30 23:10:00,
2013-09-30 18:12:00,74.7,51.4,29.66,SSE,157,0.0,4.0,44,0.00,,SKC,0.00,VWS V14.01,2013-09-30 23:12:00,
2013-09-30 18:17:00,74.4,51.7,29.66,SSE,155,0.0,1.0,45,0.00,,SKC,0.00,VWS V14.01,2013-09-30 23:17:00,
2013-09-30 18:20:00,74.6,51.3,29.66,SSE,157,0.0,4.0,44,0.00,,SKC,0.00,VWS V14.01,2013-09-30 23:20:00,
2013-09-30 18:22:00,74.0,51.9,29.66,SSE,155,0.0,1.0,46,0.00,,SKC,0.00,VWS V14.01,2013-09-30 23:22:00,
2013-09-30 18:27:00,73.7,51.7,29.66,SSE,155,0.0,2.0,46,0.00,,SKC,0.00,VWS V14.01,2013-09-30 23:27:00,
2013-09-30 18:30:00,74.0,51.9,29.66,SSE,155,0.0,1.0,46,0.00,,SKC,0.00,VWS V14.01,2013-09-30 23:30:00,
2013-09-30 18:32:00,73.1,51.7,29.66,SSE,155,0.0,2.0,47,0.00,,SKC,0.00,VWS V14.01,2013-09-30 23:32:00,
2013-09-30 18:37:00,72.6,52.4,29.66,SSE,155,0.0,0.0,49,0.00,,SKC,0.00,VWS V14.01,2013-09-30 23:37:00,
2013-09-30 18:40:00,73.1,51.7,29.66,SSE,155,0.0,2.0,47,0.00,,SKC,0.00,VWS V14.01,2013-09-30 23:40:00,
2013-09-30 18:42:00,72.1,51.9,29.66,SSE,155,0.0,0.0,49,0.00,,SKC,0.00,VWS V14.01,2013-09-30 23:42:00,
2013-09-30 18:47:00,71.4,51.8,29.66,SSE,155,0.0,0.0,50,0.00,,SKC,0.00,VWS V14.01,2013-09-30 23:47:00,
2013-09-30 18:50:00,72.1,51.9,29.66,SSE,155,0.0,0.0,49,0.00,,SKC,0.00,VWS V14.01,2013-09-30 23:50:00,
2013-09-30 18:52:00,70.9,51.9,29.66,SSE,155,0.0,0.0,51,0.00,,SKC,0.00,VWS V14.01,2013-09-30 23:52:00,
2013-09-30 18:57:00,70.6,51.6,29.66,SSE,155,0.0,0.0,51,0.00,,SKC,0.00,VWS V14.01,2013-09-30 23:57:00,
2013-09-30 19:00:00,70.9,51.9,29.66,SSE,155,0.0,0.0,51,0.00,,SKC,0.00,VWS V14.01,2013-10-01 00:00:00,
2013-09-30 19:02:00,70.4,51.4,29.66,SSE,155,0.0,0.0,51,0.00,,SKC,0.00,VWS V14.01,2013-10-01 00:02:00,
2013-09-30 19:07:00,70.1,51.2,29.66,SSE,155,0.0,0.0,51,0.00,,SKC,0.00,VWS V14.01,2013-10-01 00:07:00,
2013-09-30 19:10:00,70.4,51.4,29.66,SSE,155,0.0,1.0,51,0.00,,SKC,0.00,VWS V14.01,2013-10-01 00:10:00,
2013-09-30 19:12:00,69.8,50.9,29.66,SSE,155,0.0,0.0,51,0.00,,SKC,0.00,VWS V14.01,2013-10-01 00:12:00,
2013-09-30 19:18:00,69.7,50.8,29.67,SSE,155,0.0,0.0,51,0.00,,SKC,0.00,VWS V14.01,2013-10-01 00:18:00,
2013-09-30 19:20:00,69.8,50.9,29.67,SSE,155,0.0,1.0,51,0.00,,SKC,0.00,VWS V14.01,2013-10-01 00:20:00,
2013-09-30 19:23:00,69.7,50.8,29.66,SSE,155,0.0,0.0,51,0.00,,SKC,0.00,VWS V14.01,2013-10-01 00:23:00,
2013-09-30 19:28:00,69.5,51.1,29.66,SSE,155,0.0,2.0,52,0.00,,SKC,0.00,VWS V14.01,2013-10-01 00:28:00,
2013-09-30 19:30:00,69.7,50.8,29.66,SSE,155,0.0,1.0,51,0.00,,SKC,0.00,VWS V14.01,2013-10-01 00:30:00,
2013-09-30 19:33:00,69.2,50.8,29.66,SSE,155,0.0,0.0,52,0.00,,SKC,0.00,VWS V14.01,2013-10-01 00:33:00,
2013-09-30 19:38:00,68.8,50.5,29.66,SSE,154,0.0,2.0,52,0.00,,SKC,0.00,VWS V14.01,2013-10-01 00:38:00,
2013-09-30 19:40:00,69.2,50.8,29.66,SSE,155,0.0,2.0,52,0.00,,SKC,0.00,VWS V14.01,2013-10-01 00:40:00,
2013-09-30 19:43:00,68.6,50.8,29.66,SSE,154,0.0,0.0,53,0.00,,SKC,0.00,VWS V14.01,2013-10-01 00:43:00,
2013-09-30 19:48:00,68.4,50.6,29.67,SSE,155,0.0,0.0,53,0.00,,SKC,0.00,VWS V14.01,2013-10-01 00:48:00,
2013-09-30 19:50:00,68.6,50.8,29.66,SSE,154,0.0,2.0,53,0.00,,SKC,0.00,VWS V14.01,2013-10-01 00:50:00,
2013-09-30 19:53:00,68.4,50.6,29.66,SSE,155,0.0,2.0,53,0.00,,SKC,0.00,VWS V14.01,2013-10-01 00:53:00,
2013-09-30 19:58:00,68.2,50.9,29.66,SSE,155,0.0,2.0,54,0.00,,SKC,0.00,VWS V14.01,2013-10-01 00:58:00,
2013-09-30 20:00:00,68.3,50.5,29.67,SSE,155,0.0,1.0,53,0.00,,SKC,0.00,VWS V14.01,2013-10-01 01:00:00,
2013-09-30 20:03:00,68.0,51.2,29.66,SSE,155,0.0,0.0,55,0.00,,SKC,0.00,VWS V14.01,2013-10-01 01:03:00,
2013-09-30 20:08:00,67.7,50.5,29.66,SSE,155,0.0,0.0,54,0.00,,SKC,0.00,VWS V14.01,2013-10-01 01:08:00,
2013-09-30 20:10:00,68.0,50.8,29.66,SSE,155,0.0,2.0,54,0.00,,SKC,0.00,VWS V14.01,2013-10-01 01:10:00,
2013-09-30 20:13:00,67.3,50.6,29.66,SSE,155,0.0,0.0,55,0.00,,SKC,0.00,VWS V14.01,2013-10-01 01:13:00,
2013-09-30 20:18:00,67.2,51.0,29.66,SSE,154,0.0,3.0,56,0.00,,SKC,0.00,VWS V14.01,2013-10-01 01:18:00,
2013-09-30 20:20:00,67.4,50.7,29.66,SSE,155,0.0,0.0,55,0.00,,SKC,0.00,VWS V14.01,2013-10-01 01:20:00,
2013-09-30 20:23:00,67.3,50.6,29.66,SSE,156,0.0,0.0,55,0.00,,SKC,0.00,VWS V14.01,2013-10-01 01:23:00,
2013-09-30 20:28:00,67.4,50.7,29.66,SSE,157,0.0,0.0,55,0.00,,SKC,0.00,VWS V14.01,2013-10-01 01:28:00,
2013-09-30 20:30:00,67.3,51.1,29.66,SSE,156,0.0,4.0,56,0.00,,SKC,0.00,VWS V14.01,2013-10-01 01:30:00,
2013-09-30 20:33:00,67.7,51.0,29.66,SSE,157,3.0,3.0,55,0.00,,SKC,0.00,VWS V14.01,2013-10-01 01:33:00,
2013-09-30 20:38:00,67.7,51.0,29.66,SSE,157,0.0,3.0,55,0.00,,SKC,0.00,VWS V14.01,2013-10-01 01:38:00,
2013-09-30 20:40:00,67.6,50.9,29.66,SSE,157,0.0,4.0,55,0.00,,SKC,0.00,VWS V14.01,2013-10-01 01:40:00,
2013-09-30 20:43:00,67.5,51.3,29.66,SSE,157,0.0,0.0,56,0.00,,SKC,0.00,VWS V14.01,2013-10-01 01:43:00,
2013-09-30 20:48:00,67.4,51.2,29.66,SSE,158,0.0,5.0,56,0.00,,SKC,0.00,VWS V14.01,2013-10-01 01:48:00,
2013-09-30 20:50:00,67.5,51.3,29.66,SSE,157,0.0,3.0,56,0.00,,SKC,0.00,VWS V14.01,2013-10-01 01:50:00,
2013-09-30 20:53:00,67.2,51.0,29.66,SSE,158,0.0,0.0,56,0.00,,SKC,0.00,VWS V14.01,2013-10-01 01:53:00,
2013-09-30 20:58:00,67.0,51.3,29.67,SSE,158,0.0,0.0,57,0.00,,SKC,0.00,VWS V14.01,2013-10-01 01:58:00,
2013-09-30 21:00:00,67.2,51.0,29.66,SSE,158,0.0,5.0,56,0.00,,SKC,0.00,VWS V14.01,2013-10-01 02:00:00,
2013-09-30 21:03:00,66.8,51.1,29.67,SSE,158,0.0,0.0,57,0.00,,SKC,0.00,VWS V14.01,2013-10-01 02:03:00,
2013-09-30 21:08:00,66.8,51.6,29.67,SSE,158,0.0,0.0,58,0.00,,SKC,0.00,VWS V14.01,2013-10-01 02:08:00,
2013-09-30 21:10:00,66.9,51.2,29.67,SSE,158,0.0,0.0,57,0.00,,SKC,0.00,VWS V14.01,2013-10-01 02:10:00,
2013-09-30 21:13:00,66.7,51.5,29.67,SSE,158,0.0,0.0,58,0.00,,SKC,0.00,VWS V14.01,2013-10-01 02:13:00,
2013-09-30 21:18:00,66.4,51.7,29.67,SSE,158,2.0,3.0,59,0.00,,SKC,0.00,VWS V14.01,2013-10-01 02:18:00,
2013-09-30 21:20:00,66.7,51.5,29.67,SSE,158,0.0,2.0,58,0.00,,SKC,0.00,VWS V14.01,2013-10-01 02:20:00,
2013-09-30 21:23:00,66.4,51.7,29.67,SSE,158,0.0,0.0,59,0.00,,SKC,0.00,VWS V14.01,2013-10-01 02:23:00,
2013-09-30 21:28:00,66.1,51.8,29.67,SSE,159,0.0,2.0,60,0.00,,SKC,0.00,VWS V14.01,2013-10-01 02:28:00,
2013-09-30 21:30:00,66.4,51.7,29.67,SSE,158,0.0,3.0,59,0.00,,SKC,0.00,VWS V14.01,2013-10-01 02:30:00,
2013-09-30 21:33:00,65.8,52.0,29.67,SSE,159,0.0,1.0,61,0.00,,SKC,0.00,VWS V14.01,2013-10-01 02:33:00,
2013-09-30 21:38:00,65.7,51.9,29.67,SSE,161,0.0,5.0,61,0.00,,SKC,0.00,VWS V14.01,2013-10-01 02:38:00,
2013-09-30 21:40:00,65.8,51.5,29.67,SSE,159,0.0,2.0,60,0.00,,SKC,0.00,VWS V14.01,2013-10-01 02:40:00,
2013-09-30 21:43:00,65.6,52.2,29.67,SSE,162,0.0,0.0,62,0.00,,SKC,0.00,VWS V14.01,2013-10-01 02:43:00,
2013-09-30 21:48:00,65.6,52.2,29.67,SSE,162,0.0,1.0,62,0.00,,SKC,0.00,VWS V14.01,2013-10-01 02:48:00,
2013-09-30 21:50:00,65.6,52.2,29.67,SSE,162,0.0,5.0,62,0.00,,SKC,0.00,VWS V14.01,2013-10-01 02:50:00,
2013-09-30 21:53:00,65.6,52.2,29.67,SSE,162,4.0,4.0,62,0.00,,SKC,0.00,VWS V14.01,2013-10-01 02:53:00,
2013-09-30 21:58:00,65.7,52.3,29.67,SSE,163,0.0,4.0,62,0.00,,SKC,0.00,VWS V14.01,2013-10-01 02:58:00,
2013-09-30 22:00:00,65.6,52.2,29.67,SSE,163,0.0,4.0,62,0.00,,SKC,0.00,VWS V14.01,2013-10-01 03:00:00,
2013-09-30 22:03:00,65.8,52.4,29.67,SSE,163,0.0,0.0,62,0.00,,SKC,0.00,VWS V14.01,2013-10-01 03:03:00,
2013-09-30 22:08:00,65.7,52.8,29.67,SSE,163,0.0,3.0,63,0.00,,SKC,0.00,VWS V14.01,2013-10-01 03:08:00,
2013-09-30 22:10:00,65.8,52.4,29.67,SSE,163,0.0,4.0,62,0.00,,SKC,0.00,VWS V14.01,2013-10-01 03:10:00,
2013-09-30 22:13:00,65.7,52.8,29.67,SSE,163,0.0,1.0,63,0.00,,SKC,0.00,VWS V14.01,2013-10-01 03:13:00,
2013-09-30 22:18:00,65.6,52.7,29.67,SSE,163,0.0,2.0,63,0.00,,SKC,0.00,VWS V14.01,2013-10-01 03:18:00,
2013-09-30 22:20:00,65.7,52.8,29.67,SSE,163,0.0,3.0,63,0.00,,SKC,0.00,VWS V14.01,2013-10-01 03:20:00,
2013-09-30 22:24:00,65.6,53.1,29.67,SSE,163,0.0,4.0,64,0.00,,SKC,0.00,VWS V14.01,2013-10-01 03:24:00,
2013-09-30 22:29:00,65.6,53.1,29.68,SSE,163,0.0,4.0,64,0.00,,SKC,0.00,VWS V14.01,2013-10-01 03:29:00,
2013-09-30 22:30:00,65.6,53.1,29.67,SSE,163,1.0,5.0,64,0.00,,SKC,0.00,VWS V14.01,2013-10-01 03:30:00,
2013-09-30 22:34:00,65.4,52.9,29.68,SSE,163,0.0,0.0,64,0.00,,SKC,0.00,VWS V14.01,2013-10-01 03:34:00,
2013-09-30 22:39:00,65.2,53.2,29.68,SSE,163,0.0,0.0,65,0.00,,SKC,0.00,VWS V14.01,2013-10-01 03:39:00,
2013-09-30 22:40:00,65.4,52.9,29.68,SSE,163,0.0,4.0,64,0.00,,SKC,0.00,VWS V14.01,2013-10-01 03:40:00,
2013-09-30 22:44:00,65.0,53.4,29.68,SSE,163,0.0,0.0,66,0.00,,SKC,0.00,VWS V14.01,2013-10-01 03:44:00,
2013-09-30 22:49:00,65.0,53.4,29.68,SSE,163,0.0,3.0,66,0.00,,SKC,0.00,VWS V14.01,2013-10-01 03:49:00,
2013-09-30 22:50:00,65.0,53.0,29.68,SSE,163,0.0,3.0,65,0.00,,SKC,0.00,VWS V14.01,2013-10-01 03:50:00,
2013-09-30 22:54:00,65.0,53.4,29.68,SSE,162,0.0,0.0,66,0.00,,SKC,0.00,VWS V14.01,2013-10-01 03:54:00,
2013-09-30 22:59:00,64.7,53.5,29.69,SSE,162,2.0,5.0,67,0.00,,SKC,0.00,VWS V14.01,2013-10-01 03:59:00,
2013-09-30 23:00:00,65.0,53.4,29.68,SSE,162,0.0,3.0,66,0.00,,SKC,0.00,VWS V14.01,2013-10-01 04:00:00,
2013-09-30 23:01:00,64.6,53.4,29.69,SSE,162,0.0,5.0,67,0.00,,SKC,0.00,VWS V14.01,2013-10-01 04:01:00,
2013-09-30 23:06:00,64.3,53.5,29.69,SSE,163,0.0,0.0,68,0.00,,SKC,0.00,VWS V14.01,2013-10-01 04:06:00,
2013-09-30 23:11:00,63.6,52.9,29.69,SSE,163,0.0,0.0,68,0.00,,SKC,0.00,VWS V14.01,2013-10-01 04:11:00,
2013-09-30 23:16:00,63.0,53.1,29.69,SSE,163,0.0,2.0,70,0.00,,SKC,0.00,VWS V14.01,2013-10-01 04:16:00,
2013-09-30 23:20:00,63.5,52.8,29.69,SSE,163,0.0,0.0,68,0.00,,SKC,0.00,VWS V14.01,2013-10-01 04:20:00,
2013-09-30 23:22:00,63.0,53.5,29.69,SSE,163,0.0,2.0,71,0.00,,SKC,0.00,VWS V14.01,2013-10-01 04:22:00,
2013-09-30 23:27:00,63.2,53.7,29.68,SSE,163,0.0,0.0,71,0.00,,SKC,0.00,VWS V14.01,2013-10-01 04:27:00,
2013-09-30 23:30:00,63.0,53.5,29.69,SSE,163,0.0,2.0,71,0.00,,SKC,0.00,VWS V14.01,2013-10-01 04:30:00,
2013-09-30 23:32:00,63.3,53.8,29.68,SSE,163,0.0,0.0,71,0.00,,SKC,0.00,VWS V14.01,2013-10-01 04:32:00,
2013-09-30 23:37:00,63.4,53.8,29.68,SSE,163,0.0,2.0,71,0.00,,SKC,0.00,VWS V14.01,2013-10-01 04:37:00,
2013-09-30 23:40:00,63.3,53.8,29.68,SSE,163,0.0,0.0,71,0.00,,SKC,0.00,VWS V14.01,2013-10-01 04:40:00,
2013-09-30 23:42:00,63.4,54.2,29.69,SSE,163,0.0,2.0,72,0.00,,SKC,0.00,VWS V14.01,2013-10-01 04:42:00,
2013-09-30 23:47:00,63.4,54.2,29.68,SSE,163,0.0,0.0,72,0.00,,SKC,0.00,VWS V14.01,2013-10-01 04:47:00,
2013-09-30 23:52:00,63.2,54.0,29.68,SSE,163,0.0,0.0,72,0.00,,SKC,0.00,VWS V14.01,2013-10-01 04:52:00,
2013-09-30 23:57:00,62.9,54.1,29.69,SSE,163,0.0,0.0,73,0.00,,SKC,0.00,VWS V14.01,2013-10-01 04:57:00,